This is the latest recevied weather packets stored in our database for station/object N5CSU. If no packets are shown the sender has not sent any weather packets the latest 10 day(s).
| Time | Temp. | Humidity | Pressure | Rain* | Wind** | Luminosity | Snow |
|---|---|---|---|---|---|---|---|
| 1788473498 | 32.78° C | 60% | 1011.3 hPa | 0 mm | - | 22 W/m² | - |
| 1788473197 | 32.78° C | 60% | 1011.3 hPa | 0 mm | - | 105 W/m² | - |
| 1788472892 | 32.78° C | 59% | 1011.5 hPa | 0 mm | - | 16 W/m² | - |
| 1788472591 | 32.78° C | 61% | 1011.6 hPa | 0 mm | - | 48 W/m² | - |
| 1788472286 | 32.22° C | 63% | 1011.5 hPa | 0 mm | - | 17 W/m² | - |
| 1788471985 | 32.78° C | 62% | 1011.7 hPa | 0 mm | - | 13 W/m² | - |
| 1788471681 | 32.78° C | 63% | 1011.7 hPa | 0 mm | - | 13 W/m² | - |
| 1788471376 | 32.22° C | 62% | 1011.8 hPa | 0 mm | - | 20 W/m² | - |
| 1788471071 | 32.22° C | 63% | 1012 hPa | 0 mm | - | 37 W/m² | - |
| 1788470767 | 32.22° C | 63% | 1012.1 hPa | 0 mm | - | 23 W/m² | - |
| 1788470462 | 32.22° C | 64% | 1011.9 hPa | 0 mm | - | 19 W/m² | - |
| 1788470156 | 32.22° C | 64% | 1012.1 hPa | 0 mm | - | 18 W/m² | - |
| 1788469853 | 31.67° C | 64% | 1012 hPa | 0 mm | - | 18 W/m² | - |
| 1788469549 | 32.22° C | 64% | 1012.2 hPa | 0 mm | - | 17 W/m² | - |
| 1788469245 | 32.22° C | 63% | 1011.9 hPa | 0 mm | - | 19 W/m² | - |
| 1788468943 | 32.22° C | 64% | 1012.1 hPa | 0 mm | - | 57 W/m² | - |
| 1788468653 | 32.22° C | 63% | 1012.1 hPa | 0 mm | - | 26 W/m² | - |
| 1788468334 | 32.22° C | 64% | 1012.1 hPa | 0 mm | - | 24 W/m² | - |
| 1788468029 | 32.22° C | 64% | 1012.3 hPa | 0 mm | - | 34 W/m² | - |
| 1788467725 | 31.67° C | 67% | 1012.4 hPa | 0 mm | - | 41 W/m² | - |
| 1788467424 | 31.67° C | 67% | 1012.7 hPa | 0 mm | - | 50 W/m² | - |
| 1788467120 | 31.67° C | 66% | 1012.7 hPa | 0 mm | - | 41 W/m² | - |
| 1788466815 | 31.67° C | 66% | 1012.5 hPa | 0 mm | - | 46 W/m² | - |
| 1788466510 | 32.22° C | 65% | 1012.5 hPa | 0 mm | - | 46 W/m² | - |
| 1788466209 | 32.22° C | 64% | 1012.7 hPa | 0 mm | - | 63 W/m² | - |
* Rain latest hour (hover to see other rain measurements)
** Current wind speed in m/s (hover to see current wind gust speed)